279  
ASUS41 KAKQ 271215  
RWRAKQ  
 
REGIONAL WEATHER ROUNDUP  
NATIONAL WEATHER SERVICE WAKEFIELD VA  
800 AM EDT MON MAR 27 2017  
 
NOTE: "FAIR" INDICATES FEW OR NO CLOUDS BELOW 12,000 FEET WITH NO  
SIGNIFICANT WEATHER AND/OR S TO VISIBILITY
. * = DENOTES  
STATION MAY NOT REPORT PRECIPITATION (E.G., RAIN,SNOW,ETC.),
 
THUNDER OR FOG.  
 
VAZ042-051-052>054-056-271300-  
NORTHERN VIRGINIA  
 
CITY SKY/WX TMP DP RH WIND PRES REMARKS
 
WASH NATIONAL DRZL/FOG 48 48 100 SE3 30.10F VSB 1/4  
DULLES FOG 47 46 97 CALM 30.09R VSB 1/2  
FORT BELVOIR FOG 47 46 97 SE5 30.09F VSB 1/2  
QUANTICO FOG 48 48 100 SE3 30.11F VSB 1/4  
FREDERICKSBRG* FOG 49 49 100 CALM 30.10S VSB<1/4  
STAFFORD* LGT RAIN 47 47 100 CALM 30.14S VSB 1/4  
WARRENTON FOG 49 46 91 CALM 30.09R VSB 1/4  
CULPEPER* FOG 49 49 100 CALM 30.11R VSB 1/2  
MANASSAS* CLOUDY 46 46 100 S3 30.11R FOG  
LEESBURG* FOG 46 46 100 S3 30.09S VSB 1/2  
WINCHESTER CLOUDY 46 46 100 CALM 30.05S FOG  
FRONT ROYAL* CLOUDY 48 48 100 CALM 30.05S  
LURAY* CLOUDY 50 50 100 CALM 30.06R FOG  

 
 
VAZ048-049-060>072-079>083-271300-  
CENTRAL AND SOUTH CENTRAL VIRGINIA  
 
CITY SKY/WX TMP DP RH WIND PRES REMARKS
 
RICHMOND CLOUDY 58 55 90 S8 30.11R  
CHESTERFIELD* PTSUNNY 57 41 54 S5 30.13R  
PETERSBURG* CLOUDY 56 53 88 CALM 30.13R  
HANOVER CLOUDY 52 49 89 CALM 30.12R FOG  
TAPPAHANNOCK* CLOUDY 57 57 100 S7 30.12R  
QUINTON* CLOUDY 57 56 97 S9G18 30.12R  
CHARLOTTSVILLE CLOUDY 51 50 96 CALM 30.09R FOG  
GORDONSVILLE* CLOUDY 49 49 100 CALM 30.09S FOG  
ORANGE* CLOUDY 46 46 100 CALM 30.10S FOG  
LOUISA* FOG 54 54 100 CALM 30.08S VSB 1/2  
BUMPASS* CLOUDY 50 50 100 S8 30.10S VSB 1/4  
FARMVILLE* LGT RAIN 53 53 100 CALM 30.10S  
CREWE* CLOUDY 54 54 100 CALM 30.11S  
FORT PICKETT* CLOUDY 58 55 88 S12 30.12S  
CHASE CITY* CLOUDY 58 57 94 CALM 30.12S  
CLARKSVILLE* CLOUDY 59 59 100 CALM 30.12S  
SOUTH HILL* CLOUDY 57 55 92 S5 30.19R  
LAWRENCEVILLE* CLOUDY 58 54 85 S6 30.13R  
EMPORIA* CLOUDY 55 54 94 CALM 30.15S  

 
 
VAZ088>098-271300-  
SOUTHEAST VIRGINIA  
 
CITY SKY/WX TMP DP RH WIND PRES REMARKS
 
NORFOLK CLOUDY 59 54 83 S10 30.14R  
VIRGINIA BEACH PTSUNNY 59 53 80 S8 30.14R  
NORFOLK NAVAL PTSUNNY 61 53 75 S8 30.15S  
WEST POINT* CLOUDY 59 55 87 S5 30.14R  
SALUDA* CLOUDY 57 55 94 S6 30.12R  
NEWPORT NEWS MOSUNNY 61 55 81 S9 30.14R  
LANGLEY AFB MOSUNNY 58 55 88 S7 30.14R  
FORT EUSTIS PTSUNNY 58 54 85 S6 30.11R  
WILLIAMSBURG* MOSUNNY 57 57 100 CALM 30.14R  
HR EXEC AP* FAIR 57 52 82 S8 30.13S  
FRANKLIN* MOSUNNY 57 54 89 S5 30.15R  
US460-WAKEFLD MOSUNNY 56 55 97 S5 30.14R  

 
 
VAZ020-022-025-037-045-271300-  
WEST CENTRAL AND SOUTHWEST VIRGINIA  
 
CITY SKY/WX TMP DP RH WIND PRES REMARKS
 
STAUNTON* CLOUDY 51 51 98 CALM 30.08S  
WAYNESBORO* CLOUDY 51 51 100 CALM 30.07R  
HOT SPRINGS VA LGT RAIN 50 50 100 SW13G18 30.10R VSB<1/4  
LYNCHBURG CLOUDY 53 53 100 SW5 30.10F FOG  
DANVILLE CLOUDY 58 58 100 S5 30.11R  
SOUTH BOSTON* CLOUDY 59 58 96 S5 30.12S  
MARTINSVILLE CLOUDY 57 56 97 CALM 30.12R  
ROANOKE CLOUDY 55 55 100 SE3 30.10S  
BLACKSBURG CLOUDY 54 53 98 E3 30.12S  
DUBLIN* MOCLDY 56 55 99 CALM 30.10S  
MARION* CLOUDY 53 52 96 CALM 30.12R FOG  
HILLSVILLE* MOCLDY 55 55 99 CALM 30.10R  
RICHLANDS* PTSUNNY 58 52 79 SW7 30.08S  
WISE* CLOUDY 55 50 82 S3 30.09R  
ABINGDON* MOCLDY 55 53 95 CALM 30.08R  

 
 
MDZ021>025-VAZ099-100-271300-  
SOUTHERN MARYLAND AND THE DELMARVA PENINSULA  
 
CITY SKY/WX TMP DP RH WIND PRES REMARKS
 
PATUXENT RIVER CLOUDY 55 55 100 SW8 30.10R  
BAY BRIDGE APT FOG 45 45 100 NE3 30.10F VSB<1/4  
LEONARDTOWN CLOUDY 52 50 93 CALM 30.12R  
DOVER PTSUNNY 46 46 100 S6 30.08F  
GEORGETOWN CLOUDY 52 50 93 S7 30.11S  
EASTON CLOUDY 48 46 93 NW5 30.14R FOG  
CAMBRIDGE CLOUDY 55 54 94 S6 30.11R  
SALISBURY CLOUDY 55 54 96 S8 30.11S  
OCEAN CITY MOSUNNY 51 49 92 S7 30.13S  
WALLOPS ISLAND CLOUDY 52 52 100 S9 30.14S  
ACCOMACK* CLOUDY 58 54 86 S8 30.13S  

 
 
NCZ012>017-030>032-271300-  
NORTH CENTRAL AND EASTERN NORTH CAROLINA  
 
CITY SKY/WX TMP DP RH WIND PRES REMARKS
 
ROANOKE RAPIDS PTSUNNY 54 54 100 CALM 30.15R  
RALEIGH LGT RAIN 59 57 93 CALM 30.15R  
ELIZABETH CITY SUNNY 58 55 90 S5 30.16R  
AHOSKIE* N/A 55 54 98 S5 30.16R  
EDENTON* SUNNY 56 54 92 CALM 30.17R  
CURRITUCK* MOSUNNY 56 56 100 CALM 30.17R  
KILL DEVIL HLS NOT AVBL  
MANTEO SUNNY 56 56 97 CALM 30.18R  
CAPE HATTERAS SUNNY 67 53 61 S5 30.17R HAZE  
TARBORO* NOT AVBL  
GOLDSBORO SUNNY 55 55 100 CALM 30.14R  
WASHINGTON SUNNY 54 53 97 CALM 30.16S  
GREENVILLE MOSUNNY 54 54 100 CALM 30.16S  
NEW BERN SUNNY 52 52 100 CALM 30.17R  
WILMINGTON SUNNY 53 53 100 CALM 30.15R  

 
 
VAZ048-271300-  
ELSEWHERE  
 
CITY SKY/WX TMP DP RH WIND PRES REMARKS
 
HARRISBURG PA CLOUDY 42 42 100 CALM 30.09S FOG  
BALTIMORE DRZL/FOG 45 45 100 E3 30.09S VSB 1/4  
ANNAPOLIS LGT RAIN 47 47 100 CALM 30.10F VSB 1/4  
ANDREWS AFB FOG 46 46 99 SE5 30.08F VSB 0  
PHILADELPHIA LGT RAIN 44 43 96 NE3 30.11S VSB 1  
HENDERSON NC LGT RAIN 56 53 89 SW5 30.14R  
GREENSBORO MOCLDY 58 58 100 S7 30.10S  
ROCKY MOUNT MOSUNNY 54 54 100 CALM 30.15R  

 
 
VAZ100-271300-  
MARINE  
 
STATION/POSITION TIME TEMP WIND PRES WAVE SWELL
 
AIR SEA DIR/SP/G HT/PER HT/PER  
(UTC) (F) (DEG/KT/KT) (MB) (FT/S) (FT/S)  
CAPE MAY NJ 1148 48 45 140/ 9/ 12 1019.1S  
LEWES DE 1148 48 44 180/ 4/ 6 1019.4F  
OCEAN-CITY-INLET 1148 46 45 200/ 6/ 9 1020.6R  
WACHAPREAGUE VA 1148 54 51 210/ 5/ 7 1020.2S  
THOMAS POINT MD 1200 45 45 20/ 3/ 3 N/A  
GOOSES REEF MD 1150 45 310/ 4/ 6 1020.1R  
COVE POINT MD 1148 48 200/ 2/ 3 1019.9R  
SOLOMONS ISLAND 1148 49 47 340/ 3/ 4 N/A  
BISHOPS HEAD MD 1148 55 51 180/ 14/ 17 1019.7R  
PINEY POINT MD 1142 120/ 4/ 5 N/A  
POTOMAC MD 1150 50 180/ 8/ 8 1018.5R  
CAMBRIDGE MD 1148 54 46 200/ 4/ 6 1018.6R  
LEWISETTA VA 1148 58 51 220/ 10/ 13 1019.0R  
RAPPAHANNOCK LGT 1142 180/ 13/ 14 1020.7R  
STINGRAY PT 1150 51 200/ 6/ 8 1020.6R  
YORK RVR RNG VA 1148 53 170/ 8/ 9 1019.6R  
YORKTOWN VA 1148 60 50 210/ 6/ 8 1020.0R  
JAMESTOWN VA 1150 58 180/ 6/ 10 N/A  
DOMINION TERM VA 1148 56 170/ 4/ 5 1020.6R  
KIPTOPEKE VA 1142 49 160/ 9/ 10 N/A  
CHES BAY BRIDGE 1148 58 48 200/ 10/ 11 1020.5R  
CAPE HENRY VA 1148 60 190/ 5/ 7 N/A  
WILLOUBY STN VA 1148 59 190/ 12/ 13 1021.3R  
S CRANEY ISL VA 1148 55 170/ 6/ 7 1020.4R  
CAPE HENRY BUOY 1142 49 N/A 3/ 8  
CAPE CHARLES BUO 1151 48 N/A 3/ 7  
OFFSHORE WE BUOY 1151 49 N/A 4/ 8 2/18  
64NM E OF VA BCH 1150 56 51 180/ 8/ 8 1021.2R 4/ 8 3/ 8  
DUCK PIER NC 1148 57 50 190/ 7/ 8 1021.0R  
44100 DUCK FRF 1135 50 N/A 3/ 8 2/18  
44056 DUCK FRF 1130 51 N/A 3/ 7  
OREGON INLET NC 1142 62 55 150/ 4/ 5 1021.5R  
HATTERAS NC 1148 68 60 170/ 4/ 6 1021.2R  
DIAMOND SHLS NC 1150 70 76 180/ 8/ 10 1021.5R 3/ 9 3/ 9  
CAPE LOOKOUT NC 1100 65 130/ 3/ 4 1020.5R  

 
 
 
CLICK HERE TO GO TO PREVIOUS BULLETINS.

The Nexlab VA Page
The Nexlab NC Page
The Nexlab MD Page Main Text Page